Location: Grasslands National Park East Block
(49.0708°N, 106.5295°W)
Time: 02:05:39
(UTC-06:00)

Max Valier Satellite - Pass Details

Date: 26 September 2019
Orbit: 490 x 508 km, 97.3° (Epoch: 22 October)

Event Time Altitude Azimuth Distance (km) Brightness Sun altitude
Exits shadow 20:59:10 19° 33° (NNE) 1,286 ? -20.6°
Drops below altitude 10° 21:00:43 10° 12° (NNE) 1,736 ? -20.8°
Sets 21:03:06 0° 359° (N) 2,626 ? -21.2°
